Other Public Products
Issued by NWS Grand Forks, ND

Home | Current Version | Previous Version | Text Only | Print | Product List | Glossary Off
Versions: 1 2 3 4 5 6 7 8 9 10 11 12 13 14 15 16 17 18 19 20 21 22 23 24 25 26 27 28 29 30 31 32 33 34 35 36 37 38 39 40 41 42 43 44 45 46 47 48 49 50

000
FPUS83 KFGF 230510
OPUFGF
PRAIRIE TO PINES WEATHER ROUNDUP
NATIONAL WEATHER SERVICE EASTERN NORTH DAKOTA/GRAND FORKS ND
1200 AM CDT WED JUL 23 2014

 **SATELLITE DATA USED TO AUGMENT SKY COVER AT AUTOMATED STATIONS**
 *****  WEATHER ACROSS EASTERN NORTH DAKOTA  *****

CITY           SKY/WX    TMP DP  RH WIND       PRES   REMARKS
GRAND FORKS    CLEAR     62  59  90 CALM      30.23R
GRAND FORKS AF CLEAR     62  62  99 NW2       30.25R
GRAND CITY NWS   N/A     63 N/A N/A MISG        N/A
BUXTON         NOT AVBL
DEVILS LAKE    CLOUDY    68  59  73 SE7       30.25R
FARGO          CLEAR     63  58  83 W5        30.25R
WAHPETON ARPT  CLEAR     63  54  72 N6        30.26R
$$

 *****  WEATHER ACROSS CENTRAL AND WESTERN NORTH DAKOTA  *****

CITY           SKY/WX    TMP DP  RH WIND       PRES   REMARKS
JAMESTOWN      PTCLDY    64  59  83 SE6       30.25S
BISMARCK       CLOUDY    70  62  76 E3        30.24R
MINOT          CLOUDY    67  60  78 CALM      30.25R
MINOT AFB      CLOUDY    69  61  76 E5        30.25R
GARRISON         N/A     69  65  86 E3        30.25R
WILLISTON      CLOUDY    73  62  68 SE8       30.23R
DICKINSON      CLEAR     63  59  87 SE6       30.25R
HETTINGER      PTCLDY    64  60  87 E3        30.24S
$$

 *****  OTHER OBSERVATIONS NORTHEAST NORTH DAKOTA  *****

CITY           SKY/WX    TMP DP  RH WIND       PRES   REMARKS
WALHALLA       MOCLDY    59  59 100 NW5         N/A
LANGDON        FAIR      59  55  88 NE6       30.28R
CAVALIER       FAIR      64  55  72 N7        30.25S
GRAFTON        FAIR      63  57  82 N6        30.24S
CANDO          CLOUDY    64  61  88 E5        30.27R
FORT TOTTEN      N/A     67  60  78 E5        29.95
ROLLA          CLOUDY    61  61 100 E9        30.30R
RUGBY          FAIR      64  64 100 E7        30.25R
 ***** THE ABOVE OBSERVATIONS ARE NON NWS ARE NOT QUALITY
        CONTROLLED AND MAY MIS-REPORT RAIN FOR SNOW...
$$

 *****  OTHER OBSERVATIONS SOUTHEAST NORTH DAKOTA *****

CITY           SKY/WX    TMP DP  RH WIND       PRES   REMARKS
COOPERSTOWN    NOT AVBL
VALLEY CITY    FAIR      64  64 100 SE5       30.27R
OAKES          NOT AVBL
GWINNER        CLEAR     64  63  94 CALM      30.28R
BUFFALO        NOT AVBL
WYNDMERE       NOT AVBL
 ***** THE ABOVE OBSERVATIONS ARE NON NWS ARE NOT QUALITY
       CONTROLLED AND MAY MIS-REPORT RAIN FOR SNOW...
$$

  *****  WEATHER ACROSS NORTHERN MINNESOTA  *****

CITY           SKY/WX    TMP DP  RH WIND       PRES   REMARKS
FLAG ISLAND      N/A     64  55  72 NW12      30.21R HAZE
WARROAD        NOT AVBL
ROSEAU         CLEAR     59  54  82 N7        30.24R
HALLOCK        CLEAR     63  57  82 N3        30.24R
THF RVR FALLS  CLEAR     63  57  82 CALM      30.24S
HALSTAD          N/A     60  57  89 W3          N/A
FOSSTON        CLEAR     57  54  88 CALM      30.24S
BAUDETTE       MOCLDY    61  56  83 W5        30.23R
WASKISH        CLEAR     64  57  77 NW6       30.22R
CROOKSTON      CLEAR     61  57  88 CALM      30.24S
$$
  *****  WEATHER ACROSS CENTRAL AND WEST MINNESOTA  *****

CITY           SKY/WX    TMP DP  RH WIND       PRES   REMARKS
BEMIDJI        PTCLDY    58  53  83 NW5       30.23S
PARK RAPIDS    CLEAR     57  53  86 NW6       30.23S
WADENA         CLEAR     57  54  88 NW5       30.23S
DETROIT LAKES  CLEAR     63  55  77 NW5       30.26R
MOORHEAD       CLEAR     64  63  94 CALM      30.26R
FERGUS FALLS   CLEAR     61  55  82 N5        30.25R
ELBOW LAKE     FAIR      62  58  86 N5        30.24S
MORRIS MN      CLEAR     61  57  88 N7        30.23R
STAPLES        CLEAR     59  54  82 NW5       30.23R
WHEATON        CLEAR     61  57  88 CALM      30.27R
$$
  *****  WEATHER ELSEWHERE ACROSS MINNESOTA  *****

CITY           SKY/WX    TMP DP  RH WIND       PRES   REMARKS
DULUTH         CLEAR     62  53  72 NW5       30.18R
INTRNTL FALLS  PTCLDY    61  56  83 CALM      30.20R
ELY            PTCLDY    57  52  82 CALM      30.18R
CLOQUET        CLEAR     57  54  88 NW3       30.19R
BRAINERD       CLEAR     57  55  93 CALM      30.21S
HIBBING        PTCLDY    54  51  90 CALM      30.19R
ALEXANDRIA     CLEAR     64  57  78 N5        30.25R
SAINT CLOUD    CLEAR     65  54  67 N5        30.19R
MINNEAPOLIS    CLEAR     71  56  58 N9        30.16R
$$

  *****  WEATHER ACROSS SOUTH DAKOTA  *****

CITY           SKY/WX    TMP DP  RH WIND       PRES   REMARKS
SIOUX FALLS    PTCLDY    63  58  83 N5        30.24R
BROOKINGS      NOT AVBL
WATERTOWN      PTCLDY    61  57  87 N3        30.27R
HURON          MOCLDY    64  59  83 NW3       30.26R
SISSETON         N/A     61  60  97 NW3       30.25R
ABERDEEN       MOCLDY    62  59  90 SE3       30.25F
MITCHELL       MOCLDY    67  62  84 N3        30.26R
PIERRE         CLOUDY    73  60  63 S18       30.16F
MOBRIDGE       CLOUDY    69  62  78 SE9       30.19F
RAPID CITY     TSTM      68  63  84 E13       30.29F
$$

  *****  SOME WEATHER IN NEARBY STATES *****

CITY           SKY/WX    TMP DP  RH WIND       PRES   REMARKS
GLASGOW MT     MOCLDY    67  52  58 E10       30.22F
GREAT FALLS MT LGT RAIN  71  57  61 E13       30.17S
CHEYENNE WY    CLEAR     73  57  57 S13       30.39R
SCOTTSBLUFF NE CLEAR     75  61  61 E15       30.25R
OMAHA NE       PTCLDY    73  66  78 N8        30.16R
DES MOINES IA  CLEAR     76  64  66 N12       30.12R
DAVENPORT IA   PTCLDY    73  69  87 NW6       30.04R
CHICAGO IL     CLOUDY    77  67  71 N20G28    30.00R
EAU CLAIRE WI  CLEAR     66  61  84 N5        30.13R
LA CROSSE WI   CLEAR     71  63  75 N5        30.09R
$$

  *****  SOME NATIONAL WEATHER *****

CITY           SKY/WX    TMP DP  RH WIND       PRES   REMARKS
LA GUARDIA NY  PTCLDY    77  62  59 SW13      30.03F
RALEIGH NC     PTCLDY    72  70  93 CALM      30.11S
ATLANTA GA     PTCLDY    75  71  87 E3        30.11F
NEW ORLEANS LA MOCLDY    78  70  76 E5        30.03S
OKLAHOMA CITY  PTCLDY    78  73  84 S6        30.10R
ALBUQUERQUE NM CLOUDY    75  56  51 SE7       30.36R
SALT LAKE CITY PTCLDY    80  47  31 SE7       30.08R
LOS ANGELES CA CLEAR     70  60  70 W10       30.00R
BOISE ID       LGT RAIN  82  50  32 NW12      29.99R
SEATTLE WA     PTCLDY    65  56  72 CALM      30.04R
$$

*** WEATHER ACROSS MANITOBA...SASKATCHEWAN AND ONTARIO ***
                ***ONTARIO***

CITY           SKY/WX    TMP DP  RH WIND       PRES   REMARKS
GERALDTON      CLEAR     52  52 100 NW3       30.12R
THUNDER BAY    MOCLDY    57  55  94 SW3       30.14R
SIOUX LOOKOUT  CLEAR     50  50 100 N3        30.20R
TORONTO        TSTM      77  66  69 SW10      29.91F
BIG TROUT LK   CLEAR     54  46  76 W6        30.15R
PICKLE LAKE    NOT AVBL
DRYDEN         CLEAR     57  52  82 NW6       30.21R
KENORA         PTCLDY    61  55  82 NE5       30.24R
$$
                *** MANITOBA***

CITY           SKY/WX    TMP DP  RH WIND       PRES   REMARKS
BRANDON        PTCLDY    57  54  88 E5        30.30R
DAUPHIN        CLEAR     54  50  87 W3        30.30R
ISLAND LAKE    MOCLDY    61  52  72 W3        30.23R
PILOT MOUND      N/A     59  54  82 NE7         N/A
THE PAS        CLEAR     57  52  82 CALM      30.25R
THOMPSON       CLEAR     46  46 100 W2        30.21S
WINNIPEG       CLEAR     55  52  88 N6        30.28R
LYNN LAKE      CLEAR     57  46  67 W7        30.23R
CHURCHILL      MOCLDY    55  50  82 SW12      30.04F
GILLAM         PTCLDY    59  48  67 SW7       30.13R
$$
                ***SASKATCHEWAN***

CITY           SKY/WX    TMP DP  RH WIND       PRES   REMARKS
ESTEVAN        PTCLDY    63  59  88 E5        30.29R
KINDERSLEY     CLOUDY    66  57  72 SE16G22   30.18F
LLOYDMINSTER   CLEAR     64  55  72 SE8       30.19S
PRINCE ALBERT  PTCLDY    57  54  88 CALM      30.25R
REGINA         MOCLDY    66  52  59 E8        30.28R
YORKTON        CLEAR     61  55  82 SE8       30.29R


USA.gov is the U.S. government's official web portal to all federal, state and local government web resources and services.